Location: Beekmeers
(50.8953°N, 3.6968°E)
Time: 11:42:19
(UTC+00:00)

Cosmos 1674 Rocket - Pass Details

Date: 23 May 2024
Orbit: 598 x 627 km, 82.5° (Epoch: 14 June)

Event Time Altitude Azimuth Distance (km) Brightness Sun altitude
Exits shadow 02:52:30 - 187° (S) 2,621 6.3 -7.1°
Reaches altitude 10° 02:54:02 10° 187° (S) 2,000 5.7 -7.0°
Maximum altitude 02:58:28 86° 100° (E) 635 3.7 -6.5°
Drops below altitude 10° 03:02:56 10° 11° (N) 2,007 7.1 -6.0°
Sets 03:05:10 0° 11° (N) 2,914 8.0 -5.7°
